owner,sensor,date,latitude,longitude,vertical_datum,sea_water_temperature,qcFlag 
LUMCON,ioos:station:LUMCON:wisl1:1,2019-11-01T00:00:00Z,29.1144,-90.1840,1.0,21.03,11111222 
LUMCON,ioos:station:LUMCON:wisl1:1,2019-11-01T00:15:00Z,29.1144,-90.1840,1.0,21.59,11111222 
LUMCON,ioos:station:LUMCON:wisl1:1,2019-11-01T00:30:00Z,29.1144,-90.1840,1.0,22.23,11111222 
LUMCON,ioos:station:LUMCON:wisl1:1,2019-11-01T00:45:00Z,29.1144,-90.1840,1.0,23.29,11111222 
LUMCON,ioos:station:LUMCON:wisl1:1,2019-11-01T01:00:00Z,29.1144,-90.1840,1.0,23.57,11111222 
LUMCON,ioos:station:LUMCON:wisl1:1,2019-11-01T01:15:00Z,29.1144,-90.1840,1.0,23.74,11111222 
LUMCON,ioos:station:LUMCON:wisl1:1,2019-11-01T01:30:00Z,29.1144,-90.1840,1.0,23.93,11111222 
LUMCON,ioos:station:LUMCON:wisl1:1,2019-11-01T01:45:00Z,29.1144,-90.1840,1.0,23.75,11111222 
LUMCON,ioos:station:LUMCON:wisl1:1,2019-11-01T02:00:00Z,29.1144,-90.1840,1.0,23.6,11111222 
LUMCON,ioos:station:LUMCON:wisl1:1,2019-11-01T02:15:00Z,29.1144,-90.1840,1.0,23.76,11111222 
LUMCON,ioos:station:LUMCON:wisl1:1,2019-11-01T02:30:00Z,29.1144,-90.1840,1.0,23.67,11111222 
LUMCON,ioos:station:LUMCON:wisl1:1,2019-11-01T02:45:00Z,29.1144,-90.1840,1.0,23.69,11111222 
LUMCON,ioos:station:LUMCON:wisl1:1,2019-11-01T03:00:00Z,29.1144,-90.1840,1.0,23.62,11111222 
LUMCON,ioos:station:LUMCON:wisl1:1,2019-11-01T03:15:00Z,29.1144,-90.1840,1.0,23.69,11111222 
LUMCON,ioos:station:LUMCON:wisl1:1,2019-11-01T03:30:00Z,29.1144,-90.1840,1.0,23.6,11111222 
LUMCON,ioos:station:LUMCON:wisl1:1,2019-11-01T03:45:00Z,29.1144,-90.1840,1.0,23.21,11111222 
LUMCON,ioos:station:LUMCON:wisl1:1,2019-11-01T04:00:00Z,29.1144,-90.1840,1.0,23.01,11111222 
LUMCON,ioos:station:LUMCON:wisl1:1,2019-11-01T04:15:00Z,29.1144,-90.1840,1.0,23.43,11111222 
LUMCON,ioos:station:LUMCON:wisl1:1,2019-11-01T04:30:00Z,29.1144,-90.1840,1.0,23.4,11111222 
LUMCON,ioos:station:LUMCON:wisl1:1,2019-11-01T04:45:00Z,29.1144,-90.1840,1.0,23.15,11111222 
LUMCON,ioos:station:LUMCON:wisl1:1,2019-11-01T11:15:00Z,29.1144,-90.1840,1.0,18.58,11111222 
LUMCON,ioos:station:LUMCON:wisl1:1,2019-11-01T11:30:00Z,29.1144,-90.1840,1.0,17.88,11111222 
LUMCON,ioos:station:LUMCON:wisl1:1,2019-11-01T11:45:00Z,29.1144,-90.1840,1.0,17.77,11111222 
LUMCON,ioos:station:LUMCON:wisl1:1,2019-11-01T12:00:00Z,29.1144,-90.1840,1.0,17.35,11111222 
LUMCON,ioos:station:LUMCON:wisl1:1,2019-11-01T12:15:00Z,29.1144,-90.1840,1.0,16.96,11111222 
LUMCON,ioos:station:LUMCON:wisl1:1,2019-11-01T12:30:00Z,29.1144,-90.1840,1.0,16.75,11111222 
LUMCON,ioos:station:LUMCON:wisl1:1,2019-11-01T12:45:00Z,29.1144,-90.1840,1.0,16.18,11111222 
LUMCON,ioos:station:LUMCON:wisl1:1,2019-11-01T13:00:00Z,29.1144,-90.1840,1.0,16.1,11111222 
LUMCON,ioos:station:LUMCON:wisl1:1,2019-11-01T13:15:00Z,29.1144,-90.1840,1.0,15.82,11111222 
LUMCON,ioos:station:LUMCON:wisl1:1,2019-11-01T13:30:00Z,29.1144,-90.1840,1.0,15.56,11111222 
LUMCON,ioos:station:LUMCON:wisl1:1,2019-11-01T13:45:00Z,29.1144,-90.1840,1.0,15.59,11111222 
LUMCON,ioos:station:LUMCON:wisl1:1,2019-11-01T14:00:00Z,29.1144,-90.1840,1.0,15.47,11111222 
LUMCON,ioos:station:LUMCON:wisl1:1,2019-11-01T14:15:00Z,29.1144,-90.1840,1.0,15.34,11111222 
LUMCON,ioos:station:LUMCON:wisl1:1,2019-11-01T14:30:00Z,29.1144,-90.1840,1.0,15.27,11111222 
LUMCON,ioos:station:LUMCON:wisl1:1,2019-11-01T14:45:00Z,29.1144,-90.1840,1.0,15.27,11111222 
LUMCON,ioos:station:LUMCON:wisl1:1,2019-11-01T15:00:00Z,29.1144,-90.1840,1.0,15.1,11111222 
LUMCON,ioos:station:LUMCON:wisl1:1,2019-11-01T15:15:00Z,29.1144,-90.1840,1.0,15.19,11111222 
LUMCON,ioos:station:LUMCON:wisl1:1,2019-11-01T15:30:00Z,29.1144,-90.1840,1.0,14.94,11111222 
LUMCON,ioos:station:LUMCON:wisl1:1,2019-11-01T15:45:00Z,29.1144,-90.1840,1.0,14.81,11111222 
LUMCON,ioos:station:LUMCON:wisl1:1,2019-11-01T16:00:00Z,29.1144,-90.1840,1.0,14.79,11111222 
LUMCON,ioos:station:LUMCON:wisl1:1,2019-11-01T16:15:00Z,29.1144,-90.1840,1.0,14.82,11111222 
LUMCON,ioos:station:LUMCON:wisl1:1,2019-11-01T16:30:00Z,29.1144,-90.1840,1.0,14.72,11111222 
LUMCON,ioos:station:LUMCON:wisl1:1,2019-11-01T16:45:00Z,29.1144,-90.1840,1.0,14.82,11111222 
LUMCON,ioos:station:LUMCON:wisl1:1,2019-11-01T17:00:00Z,29.1144,-90.1840,1.0,14.73,11111222 
LUMCON,ioos:station:LUMCON:wisl1:1,2019-11-01T17:15:00Z,29.1144,-90.1840,1.0,14.77,11111222 
LUMCON,ioos:station:LUMCON:wisl1:1,2019-11-01T17:30:00Z,29.1144,-90.1840,1.0,14.77,11111222 
LUMCON,ioos:station:LUMCON:wisl1:1,2019-11-01T17:45:00Z,29.1144,-90.1840,1.0,14.75,11111222 
LUMCON,ioos:station:LUMCON:wisl1:1,2019-11-01T18:00:00Z,29.1144,-90.1840,1.0,14.84,11111222 
LUMCON,ioos:station:LUMCON:wisl1:1,2019-11-01T18:15:00Z,29.1144,-90.1840,1.0,14.86,11111222 
LUMCON,ioos:station:LUMCON:wisl1:1,2019-11-01T18:30:00Z,29.1144,-90.1840,1.0,14.79,11111222 
LUMCON,ioos:station:LUMCON:wisl1:1,2019-11-01T18:45:00Z,29.1144,-90.1840,1.0,14.84,11111222 
LUMCON,ioos:station:LUMCON:wisl1:1,2019-11-01T19:00:00Z,29.1144,-90.1840,1.0,14.87,11111222 
LUMCON,ioos:station:LUMCON:wisl1:1,2019-11-01T19:15:00Z,29.1144,-90.1840,1.0,14.9,11111222 
LUMCON,ioos:station:LUMCON:wisl1:1,2019-11-01T19:30:00Z,29.1144,-90.1840,1.0,14.88,11111222 
LUMCON,ioos:station:LUMCON:wisl1:1,2019-11-01T19:45:00Z,29.1144,-90.1840,1.0,14.92,11111222 
LUMCON,ioos:station:LUMCON:wisl1:1,2019-11-01T20:00:00Z,29.1144,-90.1840,1.0,15.0,11111222 
LUMCON,ioos:station:LUMCON:wisl1:1,2019-11-01T20:15:00Z,29.1144,-90.1840,1.0,14.97,11111222 
LUMCON,ioos:station:LUMCON:wisl1:1,2019-11-01T20:30:00Z,29.1144,-90.1840,1.0,15.02,11111222 
LUMCON,ioos:station:LUMCON:wisl1:1,2019-11-01T20:45:00Z,29.1144,-90.1840,1.0,15.0,11111222 
LUMCON,ioos:station:LUMCON:wisl1:1,2019-11-01T21:00:00Z,29.1144,-90.1840,1.0,15.06,11111222 
LUMCON,ioos:station:LUMCON:wisl1:1,2019-11-01T21:15:00Z,29.1144,-90.1840,1.0,15.25,11111222 
LUMCON,ioos:station:LUMCON:wisl1:1,2019-11-01T21:30:00Z,29.1144,-90.1840,1.0,15.33,11111222 
LUMCON,ioos:station:LUMCON:wisl1:1,2019-11-01T21:45:00Z,29.1144,-90.1840,1.0,15.47,11111222 
LUMCON,ioos:station:LUMCON:wisl1:1,2019-11-01T22:00:00Z,29.1144,-90.1840,1.0,15.48,11111222 
LUMCON,ioos:station:LUMCON:wisl1:1,2019-11-01T22:15:00Z,29.1144,-90.1840,1.0,15.54,11111222 
LUMCON,ioos:station:LUMCON:wisl1:1,2019-11-01T22:30:00Z,29.1144,-90.1840,1.0,16.13,11111222 
LUMCON,ioos:station:LUMCON:wisl1:1,2019-11-01T22:45:00Z,29.1144,-90.1840,1.0,16.96,11111222 
LUMCON,ioos:station:LUMCON:wisl1:1,2019-11-01T23:00:00Z,29.1144,-90.1840,1.0,17.72,11111222 
LUMCON,ioos:station:LUMCON:wisl1:1,2019-11-01T23:15:00Z,29.1144,-90.1840,1.0,17.88,11111222 
LUMCON,ioos:station:LUMCON:wisl1:1,2019-11-01T23:30:00Z,29.1144,-90.1840,1.0,18.38,11111222 
LUMCON,ioos:station:LUMCON:wisl1:1,2019-11-01T23:45:00Z,29.1144,-90.1840,1.0,18.8,11111222 
LUMCON,ioos:station:LUMCON:wisl1:1,2019-11-02T00:00:00Z,29.1144,-90.1840,1.0,19.36,11111222 
LUMCON,ioos:station:LUMCON:wisl1:1,2019-11-02T00:15:00Z,29.1144,-90.1840,1.0,19.19,11111222 
LUMCON,ioos:station:LUMCON:wisl1:1,2019-11-02T00:30:00Z,29.1144,-90.1840,1.0,19.61,11111222 
LUMCON,ioos:station:LUMCON:wisl1:1,2019-11-02T00:45:00Z,29.1144,-90.1840,1.0,20.47,11111222 
LUMCON,ioos:station:LUMCON:wisl1:1,2019-11-02T01:00:00Z,29.1144,-90.1840,1.0,20.5,11111222 
LUMCON,ioos:station:LUMCON:wisl1:1,2019-11-02T01:15:00Z,29.1144,-90.1840,1.0,20.66,11111222 
LUMCON,ioos:station:LUMCON:wisl1:1,2019-11-02T01:30:00Z,29.1144,-90.1840,1.0,21.2,11111222 
LUMCON,ioos:station:LUMCON:wisl1:1,2019-11-02T01:45:00Z,29.1144,-90.1840,1.0,21.35,11111222 
LUMCON,ioos:station:LUMCON:wisl1:1,2019-11-02T02:00:00Z,29.1144,-90.1840,1.0,20.84,11111222 
LUMCON,ioos:station:LUMCON:wisl1:1,2019-11-02T02:15:00Z,29.1144,-90.1840,1.0,21.31,11111222 
LUMCON,ioos:station:LUMCON:wisl1:1,2019-11-02T02:30:00Z,29.1144,-90.1840,1.0,21.57,11111222 
LUMCON,ioos:station:LUMCON:wisl1:1,2019-11-02T02:45:00Z,29.1144,-90.1840,1.0,20.8,11111222 
LUMCON,ioos:station:LUMCON:wisl1:1,2019-11-02T03:00:00Z,29.1144,-90.1840,1.0,21.72,11111222 
LUMCON,ioos:station:LUMCON:wisl1:1,2019-11-02T03:15:00Z,29.1144,-90.1840,1.0,21.74,11111222 
LUMCON,ioos:station:LUMCON:wisl1:1,2019-11-02T03:30:00Z,29.1144,-90.1840,1.0,21.46,11111222 
LUMCON,ioos:station:LUMCON:wisl1:1,2019-11-02T03:45:00Z,29.1144,-90.1840,1.0,21.4,11111222 
LUMCON,ioos:station:LUMCON:wisl1:1,2019-11-02T04:00:00Z,29.1144,-90.1840,1.0,20.6,11111222 
LUMCON,ioos:station:LUMCON:wisl1:1,2019-11-02T04:15:00Z,29.1144,-90.1840,1.0,20.27,11111222 
LUMCON,ioos:station:LUMCON:wisl1:1,2019-11-02T04:30:00Z,29.1144,-90.1840,1.0,20.5,11111222 
LUMCON,ioos:station:LUMCON:wisl1:1,2019-11-02T04:45:00Z,29.1144,-90.1840,1.0,20.7,11111222 
LUMCON,ioos:station:LUMCON:wisl1:1,2019-11-02T05:00:00Z,29.1144,-90.1840,1.0,20.6,11111222 
LUMCON,ioos:station:LUMCON:wisl1:1,2019-11-02T05:15:00Z,29.1144,-90.1840,1.0,19.76,11111222 
LUMCON,ioos:station:LUMCON:wisl1:1,2019-11-02T05:30:00Z,29.1144,-90.1840,1.0,20.97,11111222 
LUMCON,ioos:station:LUMCON:wisl1:1,2019-11-02T05:45:00Z,29.1144,-90.1840,1.0,21.12,11111222 
LUMCON,ioos:station:LUMCON:wisl1:1,2019-11-02T06:00:00Z,29.1144,-90.1840,1.0,19.78,11111222 
LUMCON,ioos:station:LUMCON:wisl1:1,2019-11-02T06:15:00Z,29.1144,-90.1840,1.0,20.5,11111222 
LUMCON,ioos:station:LUMCON:wisl1:1,2019-11-02T06:30:00Z,29.1144,-90.1840,1.0,20.56,11111222 
LUMCON,ioos:station:LUMCON:wisl1:1,2019-11-02T06:45:00Z,29.1144,-90.1840,1.0,19.47,11111222 
LUMCON,ioos:station:LUMCON:wisl1:1,2019-11-02T07:00:00Z,29.1144,-90.1840,1.0,20.64,11111222 
LUMCON,ioos:station:LUMCON:wisl1:1,2019-11-02T07:15:00Z,29.1144,-90.1840,1.0,21.15,11111222 
LUMCON,ioos:station:LUMCON:wisl1:1,2019-11-02T07:30:00Z,29.1144,-90.1840,1.0,20.03,11111222 
LUMCON,ioos:station:LUMCON:wisl1:1,2019-11-02T07:45:00Z,29.1144,-90.1840,1.0,20.59,11111222 
LUMCON,ioos:station:LUMCON:wisl1:1,2019-11-02T08:00:00Z,29.1144,-90.1840,1.0,21.12,11111222 
LUMCON,ioos:station:LUMCON:wisl1:1,2019-11-02T08:15:00Z,29.1144,-90.1840,1.0,21.19,11111222 
LUMCON,ioos:station:LUMCON:wisl1:1,2019-11-02T08:30:00Z,29.1144,-90.1840,1.0,21.22,11111222 
LUMCON,ioos:station:LUMCON:wisl1:1,2019-11-02T08:45:00Z,29.1144,-90.1840,1.0,21.2,11111222 
LUMCON,ioos:station:LUMCON:wisl1:1,2019-11-02T09:00:00Z,29.1144,-90.1840,1.0,21.17,11111222 
LUMCON,ioos:station:LUMCON:wisl1:1,2019-11-02T09:15:00Z,29.1144,-90.1840,1.0,21.09,11111222 
LUMCON,ioos:station:LUMCON:wisl1:1,2019-11-02T09:30:00Z,29.1144,-90.1840,1.0,20.98,11111222 
LUMCON,ioos:station:LUMCON:wisl1:1,2019-11-02T09:45:00Z,29.1144,-90.1840,1.0,20.68,11111222 
LUMCON,ioos:station:LUMCON:wisl1:1,2019-11-02T10:00:00Z,29.1144,-90.1840,1.0,20.37,11111222 
LUMCON,ioos:station:LUMCON:wisl1:1,2019-11-02T10:15:00Z,29.1144,-90.1840,1.0,19.78,11111222 
LUMCON,ioos:station:LUMCON:wisl1:1,2019-11-02T10:30:00Z,29.1144,-90.1840,1.0,19.84,11111222 
LUMCON,ioos:station:LUMCON:wisl1:1,2019-11-02T10:45:00Z,29.1144,-90.1840,1.0,19.54,11111222 
LUMCON,ioos:station:LUMCON:wisl1:1,2019-11-02T11:00:00Z,29.1144,-90.1840,1.0,19.33,11111222 
LUMCON,ioos:station:LUMCON:wisl1:1,2019-11-02T11:15:00Z,29.1144,-90.1840,1.0,18.86,11111222 
LUMCON,ioos:station:LUMCON:wisl1:1,2019-11-02T11:30:00Z,29.1144,-90.1840,1.0,18.39,11111222 
LUMCON,ioos:station:LUMCON:wisl1:1,2019-11-02T11:45:00Z,29.1144,-90.1840,1.0,18.07,11111222 
LUMCON,ioos:station:LUMCON:wisl1:1,2019-11-02T12:00:00Z,29.1144,-90.1840,1.0,17.82,11111222 
LUMCON,ioos:station:LUMCON:wisl1:1,2019-11-02T12:15:00Z,29.1144,-90.1840,1.0,17.46,11111222 
LUMCON,ioos:station:LUMCON:wisl1:1,2019-11-02T12:30:00Z,29.1144,-90.1840,1.0,17.13,11111222 
LUMCON,ioos:station:LUMCON:wisl1:1,2019-11-02T12:45:00Z,29.1144,-90.1840,1.0,17.0,11111222 
LUMCON,ioos:station:LUMCON:wisl1:1,2019-11-02T13:00:00Z,29.1144,-90.1840,1.0,17.05,11111222 
LUMCON,ioos:station:LUMCON:wisl1:1,2019-11-02T13:15:00Z,29.1144,-90.1840,1.0,16.58,11111222 
LUMCON,ioos:station:LUMCON:wisl1:1,2019-11-02T13:30:00Z,29.1144,-90.1840,1.0,16.83,11111222 
LUMCON,ioos:station:LUMCON:wisl1:1,2019-11-02T22:00:00Z,29.1144,-90.1840,1.0,16.41,11111222 
LUMCON,ioos:station:LUMCON:wisl1:1,2019-11-02T22:15:00Z,29.1144,-90.1840,1.0,16.46,11111222 
LUMCON,ioos:station:LUMCON:wisl1:1,2019-11-02T22:30:00Z,29.1144,-90.1840,1.0,16.43,11111222 
LUMCON,ioos:station:LUMCON:wisl1:1,2019-11-02T22:45:00Z,29.1144,-90.1840,1.0,16.43,11111222 
LUMCON,ioos:station:LUMCON:wisl1:1,2019-11-02T23:00:00Z,29.1144,-90.1840,1.0,16.4,11111222 
LUMCON,ioos:station:LUMCON:wisl1:1,2019-11-02T23:15:00Z,29.1144,-90.1840,1.0,16.57,11111222 
LUMCON,ioos:station:LUMCON:wisl1:1,2019-11-02T23:30:00Z,29.1144,-90.1840,1.0,16.57,11111222 
LUMCON,ioos:station:LUMCON:wisl1:1,2019-11-02T23:45:00Z,29.1144,-90.1840,1.0,16.67,11111222 
LUMCON,ioos:station:LUMCON:wisl1:1,2019-11-03T00:00:00Z,29.1144,-90.1840,1.0,16.62,11111222 
LUMCON,ioos:station:LUMCON:wisl1:1,2019-11-03T00:15:00Z,29.1144,-90.1840,1.0,16.58,11111222 
LUMCON,ioos:station:LUMCON:wisl1:1,2019-11-03T00:30:00Z,29.1144,-90.1840,1.0,16.65,11111222 
LUMCON,ioos:station:LUMCON:wisl1:1,2019-11-03T00:45:00Z,29.1144,-90.1840,1.0,16.77,11111222 
LUMCON,ioos:station:LUMCON:wisl1:1,2019-11-03T01:00:00Z,29.1144,-90.1840,1.0,16.86,11111222 
LUMCON,ioos:station:LUMCON:wisl1:1,2019-11-03T01:15:00Z,29.1144,-90.1840,1.0,17.03,11111222 
LUMCON,ioos:station:LUMCON:wisl1:1,2019-11-03T01:30:00Z,29.1144,-90.1840,1.0,17.25,11111222 
LUMCON,ioos:station:LUMCON:wisl1:1,2019-11-03T01:45:00Z,29.1144,-90.1840,1.0,18.05,11111222 
LUMCON,ioos:station:LUMCON:wisl1:1,2019-11-03T02:00:00Z,29.1144,-90.1840,1.0,18.7,11111222 
LUMCON,ioos:station:LUMCON:wisl1:1,2019-11-03T02:15:00Z,29.1144,-90.1840,1.0,19.32,11111222 
LUMCON,ioos:station:LUMCON:wisl1:1,2019-11-03T02:30:00Z,29.1144,-90.1840,1.0,19.82,11111222 
LUMCON,ioos:station:LUMCON:wisl1:1,2019-11-03T02:45:00Z,29.1144,-90.1840,1.0,20.27,11111222 
LUMCON,ioos:station:LUMCON:wisl1:1,2019-11-03T03:00:00Z,29.1144,-90.1840,1.0,20.49,11111222 
LUMCON,ioos:station:LUMCON:wisl1:1,2019-11-03T03:15:00Z,29.1144,-90.1840,1.0,20.73,11111222 
LUMCON,ioos:station:LUMCON:wisl1:1,2019-11-03T03:30:00Z,29.1144,-90.1840,1.0,20.82,11111222 
LUMCON,ioos:station:LUMCON:wisl1:1,2019-11-03T03:45:00Z,29.1144,-90.1840,1.0,20.89,11111222 
LUMCON,ioos:station:LUMCON:wisl1:1,2019-11-03T04:00:00Z,29.1144,-90.1840,1.0,20.99,11111222 
LUMCON,ioos:station:LUMCON:wisl1:1,2019-11-03T04:15:00Z,29.1144,-90.1840,1.0,20.79,11111222 
LUMCON,ioos:station:LUMCON:wisl1:1,2019-11-03T04:30:00Z,29.1144,-90.1840,1.0,20.86,11111222 
LUMCON,ioos:station:LUMCON:wisl1:1,2019-11-03T04:45:00Z,29.1144,-90.1840,1.0,21.09,11111222 
LUMCON,ioos:station:LUMCON:wisl1:1,2019-11-03T05:00:00Z,29.1144,-90.1840,1.0,21.02,11111222 
LUMCON,ioos:station:LUMCON:wisl1:1,2019-11-03T05:15:00Z,29.1144,-90.1840,1.0,20.7,11111222 
LUMCON,ioos:station:LUMCON:wisl1:1,2019-11-03T05:30:00Z,29.1144,-90.1840,1.0,20.58,11111222 
LUMCON,ioos:station:LUMCON:wisl1:1,2019-11-03T05:45:00Z,29.1144,-90.1840,1.0,20.61,11111222 
LUMCON,ioos:station:LUMCON:wisl1:1,2019-11-03T06:00:00Z,29.1144,-90.1840,1.0,20.5,11111222 
LUMCON,ioos:station:LUMCON:wisl1:1,2019-11-03T06:15:00Z,29.1144,-90.1840,1.0,20.6,11111222 
LUMCON,ioos:station:LUMCON:wisl1:1,2019-11-03T06:30:00Z,29.1144,-90.1840,1.0,20.52,11111222 
LUMCON,ioos:station:LUMCON:wisl1:1,2019-11-03T06:45:00Z,29.1144,-90.1840,1.0,20.9,11111222 
LUMCON,ioos:station:LUMCON:wisl1:1,2019-11-03T07:00:00Z,29.1144,-90.1840,1.0,21.07,11111222 
LUMCON,ioos:station:LUMCON:wisl1:1,2019-11-03T07:15:00Z,29.1144,-90.1840,1.0,20.63,11111222 
LUMCON,ioos:station:LUMCON:wisl1:1,2019-11-03T07:30:00Z,29.1144,-90.1840,1.0,20.94,11111222 
LUMCON,ioos:station:LUMCON:wisl1:1,2019-11-03T07:45:00Z,29.1144,-90.1840,1.0,21.14,11111222 
LUMCON,ioos:station:LUMCON:wisl1:1,2019-11-03T08:00:00Z,29.1144,-90.1840,1.0,21.17,11111222 
LUMCON,ioos:station:LUMCON:wisl1:1,2019-11-03T08:15:00Z,29.1144,-90.1840,1.0,21.18,11111222 
LUMCON,ioos:station:LUMCON:wisl1:1,2019-11-03T08:30:00Z,29.1144,-90.1840,1.0,21.21,11111222 
LUMCON,ioos:station:LUMCON:wisl1:1,2019-11-03T08:45:00Z,29.1144,-90.1840,1.0,21.17,11111222 
LUMCON,ioos:station:LUMCON:wisl1:1,2019-11-03T09:00:00Z,29.1144,-90.1840,1.0,21.24,11111222 
LUMCON,ioos:station:LUMCON:wisl1:1,2019-11-03T09:15:00Z,29.1144,-90.1840,1.0,21.18,11111222 
LUMCON,ioos:station:LUMCON:wisl1:1,2019-11-03T09:30:00Z,29.1144,-90.1840,1.0,21.01,11111222 
LUMCON,ioos:station:LUMCON:wisl1:1,2019-11-03T09:45:00Z,29.1144,-90.1840,1.0,20.89,11111222 
LUMCON,ioos:station:LUMCON:wisl1:1,2019-11-03T10:00:00Z,29.1144,-90.1840,1.0,20.8,11111222 
LUMCON,ioos:station:LUMCON:wisl1:1,2019-11-03T10:15:00Z,29.1144,-90.1840,1.0,20.8,11111222 
LUMCON,ioos:station:LUMCON:wisl1:1,2019-11-03T10:30:00Z,29.1144,-90.1840,1.0,21.0,11111222 
LUMCON,ioos:station:LUMCON:wisl1:1,2019-11-03T10:45:00Z,29.1144,-90.1840,1.0,20.95,11111222 
LUMCON,ioos:station:LUMCON:wisl1:1,2019-11-03T11:00:00Z,29.1144,-90.1840,1.0,20.72,11111222 
LUMCON,ioos:station:LUMCON:wisl1:1,2019-11-03T11:15:00Z,29.1144,-90.1840,1.0,20.44,11111222 
LUMCON,ioos:station:LUMCON:wisl1:1,2019-11-03T11:30:00Z,29.1144,-90.1840,1.0,20.13,11111222 
LUMCON,ioos:station:LUMCON:wisl1:1,2019-11-03T11:45:00Z,29.1144,-90.1840,1.0,18.73,11111222 
LUMCON,ioos:station:LUMCON:wisl1:1,2019-11-03T12:00:00Z,29.1144,-90.1840,1.0,19.26,11111222 
LUMCON,ioos:station:LUMCON:wisl1:1,2019-11-03T12:15:00Z,29.1144,-90.1840,1.0,18.59,11111222 
LUMCON,ioos:station:LUMCON:wisl1:1,2019-11-03T12:30:00Z,29.1144,-90.1840,1.0,19.16,11111222 
LUMCON,ioos:station:LUMCON:wisl1:1,2019-11-03T12:45:00Z,29.1144,-90.1840,1.0,18.34,11111222 
LUMCON,ioos:station:LUMCON:wisl1:1,2019-11-03T13:00:00Z,29.1144,-90.1840,1.0,17.65,11111222 
LUMCON,ioos:station:LUMCON:wisl1:1,2019-11-03T13:15:00Z,29.1144,-90.1840,1.0,17.78,11111222 
LUMCON,ioos:station:LUMCON:wisl1:1,2019-11-03T13:30:00Z,29.1144,-90.1840,1.0,17.31,11111222 
LUMCON,ioos:station:LUMCON:wisl1:1,2019-11-03T13:45:00Z,29.1144,-90.1840,1.0,17.27,11111222 
LUMCON,ioos:station:LUMCON:wisl1:1,2019-11-03T14:00:00Z,29.1144,-90.1840,1.0,17.0,11111222 
LUMCON,ioos:station:LUMCON:wisl1:1,2019-11-03T14:15:00Z,29.1144,-90.1840,1.0,16.59,11111222 
LUMCON,ioos:station:LUMCON:wisl1:1,2019-11-03T14:30:00Z,29.1144,-90.1840,1.0,16.54,11111222 
LUMCON,ioos:station:LUMCON:wisl1:1,2019-11-03T14:45:00Z,29.1144,-90.1840,1.0,16.58,11111222 
LUMCON,ioos:station:LUMCON:wisl1:1,2019-11-03T15:00:00Z,29.1144,-90.1840,1.0,16.27,11111222 
LUMCON,ioos:station:LUMCON:wisl1:1,2019-11-03T15:15:00Z,29.1144,-90.1840,1.0,16.39,11111222 
LUMCON,ioos:station:LUMCON:wisl1:1,2019-11-03T15:30:00Z,29.1144,-90.1840,1.0,16.37,11111222 
LUMCON,ioos:station:LUMCON:wisl1:1,2019-11-03T15:45:00Z,29.1144,-90.1840,1.0,16.5,11111222 
LUMCON,ioos:station:LUMCON:wisl1:1,2019-11-03T16:00:00Z,29.1144,-90.1840,1.0,16.56,11111222 
LUMCON,ioos:station:LUMCON:wisl1:1,2019-11-03T16:15:00Z,29.1144,-90.1840,1.0,16.61,11111222 
LUMCON,ioos:station:LUMCON:wisl1:1,2019-11-03T16:30:00Z,29.1144,-90.1840,1.0,16.72,11111222 
LUMCON,ioos:station:LUMCON:wisl1:1,2019-11-03T16:45:00Z,29.1144,-90.1840,1.0,16.54,11111222 
LUMCON,ioos:station:LUMCON:wisl1:1,2019-11-03T22:00:00Z,29.1144,-90.1840,1.0,17.2,11111222 
LUMCON,ioos:station:LUMCON:wisl1:1,2019-11-03T22:15:00Z,29.1144,-90.1840,1.0,17.2,11111222 
LUMCON,ioos:station:LUMCON:wisl1:1,2019-11-03T22:30:00Z,29.1144,-90.1840,1.0,17.03,11111222 
LUMCON,ioos:station:LUMCON:wisl1:1,2019-11-03T22:45:00Z,29.1144,-90.1840,1.0,16.9,11111222 
LUMCON,ioos:station:LUMCON:wisl1:1,2019-11-03T23:00:00Z,29.1144,-90.1840,1.0,17.01,11111222 
LUMCON,ioos:station:LUMCON:wisl1:1,2019-11-03T23:15:00Z,29.1144,-90.1840,1.0,17.09,11111222 
LUMCON,ioos:station:LUMCON:wisl1:1,2019-11-03T23:30:00Z,29.1144,-90.1840,1.0,17.12,11111222 
LUMCON,ioos:station:LUMCON:wisl1:1,2019-11-03T23:45:00Z,29.1144,-90.1840,1.0,17.24,11111222 
LUMCON,ioos:station:LUMCON:wisl1:1,2019-11-04T00:00:00Z,29.1144,-90.1840,1.0,17.22,11111222 
LUMCON,ioos:station:LUMCON:wisl1:1,2019-11-04T00:15:00Z,29.1144,-90.1840,1.0,17.43,11111222 
LUMCON,ioos:station:LUMCON:wisl1:1,2019-11-04T00:30:00Z,29.1144,-90.1840,1.0,17.85,11111222 
LUMCON,ioos:station:LUMCON:wisl1:1,2019-11-04T00:45:00Z,29.1144,-90.1840,1.0,18.19,11111222 
LUMCON,ioos:station:LUMCON:wisl1:1,2019-11-04T01:00:00Z,29.1144,-90.1840,1.0,18.98,11111222 
LUMCON,ioos:station:LUMCON:wisl1:1,2019-11-04T01:15:00Z,29.1144,-90.1840,1.0,19.39,11111222 
LUMCON,ioos:station:LUMCON:wisl1:1,2019-11-04T01:30:00Z,29.1144,-90.1840,1.0,19.5,11111222 
LUMCON,ioos:station:LUMCON:wisl1:1,2019-11-04T01:45:00Z,29.1144,-90.1840,1.0,19.99,11111222 
LUMCON,ioos:station:LUMCON:wisl1:1,2019-11-04T02:00:00Z,29.1144,-90.1840,1.0,19.87,11111222 
LUMCON,ioos:station:LUMCON:wisl1:1,2019-11-04T02:15:00Z,29.1144,-90.1840,1.0,19.84,11111222 
LUMCON,ioos:station:LUMCON:wisl1:1,2019-11-04T02:30:00Z,29.1144,-90.1840,1.0,20.33,11111222 
LUMCON,ioos:station:LUMCON:wisl1:1,2019-11-04T02:45:00Z,29.1144,-90.1840,1.0,20.11,11111222 
LUMCON,ioos:station:LUMCON:wisl1:1,2019-11-04T03:00:00Z,29.1144,-90.1840,1.0,20.28,11111222 
LUMCON,ioos:station:LUMCON:wisl1:1,2019-11-04T03:15:00Z,29.1144,-90.1840,1.0,20.06,11111222 
LUMCON,ioos:station:LUMCON:wisl1:1,2019-11-04T03:30:00Z,29.1144,-90.1840,1.0,20.23,11111222 
LUMCON,ioos:station:LUMCON:wisl1:1,2019-11-04T03:45:00Z,29.1144,-90.1840,1.0,20.15,11111222 
LUMCON,ioos:station:LUMCON:wisl1:1,2019-11-04T04:00:00Z,29.1144,-90.1840,1.0,20.36,11111222 
LUMCON,ioos:station:LUMCON:wisl1:1,2019-11-04T04:15:00Z,29.1144,-90.1840,1.0,19.98,11111222 
LUMCON,ioos:station:LUMCON:wisl1:1,2019-11-04T04:30:00Z,29.1144,-90.1840,1.0,20.17,11111222 
LUMCON,ioos:station:LUMCON:wisl1:1,2019-11-04T04:45:00Z,29.1144,-90.1840,1.0,20.19,11111222 
LUMCON,ioos:station:LUMCON:wisl1:1,2019-11-04T05:00:00Z,29.1144,-90.1840,1.0,19.63,11111222 
LUMCON,ioos:station:LUMCON:wisl1:1,2019-11-04T05:15:00Z,29.1144,-90.1840,1.0,19.52,11111222 
LUMCON,ioos:station:LUMCON:wisl1:1,2019-11-04T14:00:00Z,29.1144,-90.1840,1.0,17.54,11111222 
LUMCON,ioos:station:LUMCON:wisl1:1,2019-11-04T14:15:00Z,29.1144,-90.1840,1.0,17.5,11111222 
LUMCON,ioos:station:LUMCON:wisl1:1,2019-11-04T14:30:00Z,29.1144,-90.1840,1.0,17.16,11111222 
LUMCON,ioos:station:LUMCON:wisl1:1,2019-11-04T14:45:00Z,29.1144,-90.1840,1.0,17.23,11111222 
LUMCON,ioos:station:LUMCON:wisl1:1,2019-11-04T15:00:00Z,29.1144,-90.1840,1.0,17.47,11111222 
LUMCON,ioos:station:LUMCON:wisl1:1,2019-11-04T15:15:00Z,29.1144,-90.1840,1.0,17.31,11111222 
LUMCON,ioos:station:LUMCON:wisl1:1,2019-11-04T15:30:00Z,29.1144,-90.1840,1.0,17.21,11111222 
LUMCON,ioos:station:LUMCON:wisl1:1,2019-11-04T15:45:00Z,29.1144,-90.1840,1.0,17.33,11111222 
LUMCON,ioos:station:LUMCON:wisl1:1,2019-11-04T16:00:00Z,29.1144,-90.1840,1.0,17.37,11111222 
LUMCON,ioos:station:LUMCON:wisl1:1,2019-11-04T16:15:00Z,29.1144,-90.1840,1.0,17.47,11111222 
LUMCON,ioos:station:LUMCON:wisl1:1,2019-11-04T16:30:00Z,29.1144,-90.1840,1.0,17.48,11111222 
LUMCON,ioos:station:LUMCON:wisl1:1,2019-11-04T16:45:00Z,29.1144,-90.1840,1.0,17.44,11111222 
LUMCON,ioos:station:LUMCON:wisl1:1,2019-11-04T17:00:00Z,29.1144,-90.1840,1.0,17.48,11111222 
LUMCON,ioos:station:LUMCON:wisl1:1,2019-11-04T17:15:00Z,29.1144,-90.1840,1.0,17.48,11111222 
LUMCON,ioos:station:LUMCON:wisl1:1,2019-11-04T17:30:00Z,29.1144,-90.1840,1.0,17.4,11111222 
LUMCON,ioos:station:LUMCON:wisl1:1,2019-11-04T17:45:00Z,29.1144,-90.1840,1.0,17.44,11111222 
LUMCON,ioos:station:LUMCON:wisl1:1,2019-11-04T18:00:00Z,29.1144,-90.1840,1.0,17.69,11111222 
LUMCON,ioos:station:LUMCON:wisl1:1,2019-11-04T18:15:00Z,29.1144,-90.1840,1.0,17.64,11111222 
LUMCON,ioos:station:LUMCON:wisl1:1,2019-11-04T18:30:00Z,29.1144,-90.1840,1.0,17.62,11111222 
LUMCON,ioos:station:LUMCON:wisl1:1,2019-11-04T18:45:00Z,29.1144,-90.1840,1.0,17.4,11111222 
LUMCON,ioos:station:LUMCON:wisl1:1,2019-11-04T19:00:00Z,29.1144,-90.1840,1.0,17.42,11111222 
LUMCON,ioos:station:LUMCON:wisl1:1,2019-11-04T19:15:00Z,29.1144,-90.1840,1.0,17.49,11111222 
LUMCON,ioos:station:LUMCON:wisl1:1,2019-11-04T19:30:00Z,29.1144,-90.1840,1.0,17.55,11111222 
LUMCON,ioos:station:LUMCON:wisl1:1,2019-11-04T19:45:00Z,29.1144,-90.1840,1.0,17.55,11111222 
LUMCON,ioos:station:LUMCON:wisl1:1,2019-11-04T20:00:00Z,29.1144,-90.1840,1.0,17.72,11111222 